COSMOS 2251 DEB, 34722

Orbit data source: Space-Track

COSMOS 2251 DEB, 34722 is space debris in LEO originally from a launch on Wed, 16 Jun 1993 UTC launched from the Plesetsk Missile And Space Complex (PKMTR). The debris from Iridium 33, an American commercial communications satellite, has been tracked extensively since its accidental collision with the defunct Russian satellite Cosmos 2251 in 2009. This event, occurring at high speed in low Earth orbit (LEO), generated thousands of pieces of space debris, significantly increasing the risk of further collisions. The Iridium 33 debris cloud has impacted space traffic management and orbital debris mitigation strategies, making it a subject of ongoing study in space situational awareness.

Loading next visibility...
Identifier
34722, 1993-036YQ
Orbit
LEO
Country
Flag of CISCIS
Related business
Manufacturer
Unknown
Mission
Spacecraft
Bus & Motor
Unknown
Mass
Unknown
Launch date (UTC)
1993-06-16 (33 years ago)
Launch vehicle
Unknown
Launch site
Plesetsk Missile And Space Complex (PKMTR)
Object type
Payload
Rocket body
Debris
Shape & HBR
Unknown shape, 0.1 m
Radar Cross Section
Medium (>0.1 m² and <1 m²)

Expand to show TLE details & history
Last TLE update: 17 hours ago

TLE from 17 hours ago
0 COSMOS 2251 DEB
1 34722U 93036YQ  26253.63281712  .00000371  00000-0  18950-3 0  9994
2 34722  73.8723 210.9293 0160928  84.4312  89.0483 14.12530740900833
Epoch: 2026-09-10T15:11Z
TLE epoch observation values (Epoch: 2026-09-10T15:11:15.399Z)
Latitude
4.40939°
Longitude
172.1765°
Altitude
852.775 km
Speed
7.427 km/s
True Right ascension
01h 58m 38s
True Declination
4° 23' 00"
Sunlit
Object was in full shadow at epoch
Visualization orbit readout
Latitude
Unknown
Longitude
Unknown
Altitude
Unknown
Speed
Unknown
Apparent Right ascension
Unknown
Apparent Declination
Unknown
Sunlit
N/A
Visualization observer readout
Local Sidereal Time
00:10:37
Azimuth
Unknown
Elevation
Unknown
Doppler factor
Unknown
Orbital elements
Apogee altitude
964.683 km
Perigee altitude
732.092 km
Semi-major axis
7,226.524 km
Eccentricity
0.01609
Inclination
73.8723°
RAAN
210.9293°
Arg. of periapsis
84.4312°
True anomaly
90.89244°
Mean anomaly
89.0483°
Eccentric anomaly
89.97035°
Mean motion
3.53304 °/min
Orbital period
101.9 mins
BSTAR
0.0001895

Documentation

Showing up to 5 results
|